Regional Weather Roundup
Issued by NWS

Home | Current Version | Previous Version | Text Only | Print | Product List | Glossary On
Versions: 1 2 3 4 5 6 7 8 9 10 11 12 13 14 15 16 17 18 19 20 21 22 23 24 25 26 27 28 29 30 31 32 33 34 35 36 37 38 39 40 41 42 43 44 45 46 47 48 49 50
000
ASPQ40 PGUM 170212
RWRPQ
WEATHER ROUNDUP FOR THE MARIANAS AND MICRONESIA
NATIONAL WEATHER SERVICE TIYAN GU
1200 PM CHST TUE JAN 17 2017

GUZ001>004-170300-
MARIANA ISLANDS-

CITY           SKY/WX    TMP DP  RH WIND       PRES   REMARKS
GUAM AIRPORT   SUNNY     84  75  74 SE8       29.94F HX  92
ANDERSEN AFB   MOSUNNY   82  75  78 SE10      29.95F
ROTA AIRPORT   PTSUNNY   79  75  89 N7        29.95F
TINIAN AP      PTSUNNY   77  75  94 NE16      29.93F
SAIPAN AP      LGT RAIN  75  75 100 NE15      29.94F

$$

PMZ161-170300-
REPUBLIC OF PALAU-

CITY           SKY/WX    TMP DP  RH WIND       PRES   REMARKS
KOROR AP       PTSUNNY   88  82  84 SE8       29.88F HX 108
KOROR WSO      CLOUDY    86  77  74 SE6       29.88F HX  97

$$

PMZ171>174-170300-
FEDERATED STATES OF MICRONESIA-

CITY           SKY/WX    TMP DP  RH WIND       PRES   REMARKS
YAP AIRPORT    PTSUNNY   86  79  79 E9        29.87F HX  99
CHUUK AP       MOSUNNY   90  82  79 E7        29.84F HX 111
POHNPEI AP     PTSUNNY   88  77  70 NE8       29.86F HX 100
POHNPEI WSO    PTSUNNY   88  77  70 N10       29.89F HX 100
KOSRAE AP      NOT AVBL

$$

PMZ181-170300-
REPUBLIC OF THE MARSHALL ISLANDS-

CITY           SKY/WX    TMP DP  RH WIND       PRES   REMARKS
KWAJALEIN AP   SUNNY     86  73  66 E17       29.86F HX  93
MAJURO AP      NOT AVBL
MAJURO WSO     PTSUNNY   88  79  74 NE9       29.80F HX 102

$$




USA.gov is the U.S. government's official web portal to all federal, state and local government web resources and services.